Simultaneous Nadir Overpasses (SNOs) Predictions

Prediction of SNOs between GOES-16 and NOAA-20 Satellite Orbit:

Table of predicted SNOs for the next 14.0 days since TLE Epoch: 8/6/2022
Index Date Time (GOES-16) GOES-16 Lat,Lon NOAA-20 Lat,Lon Distance(km) Time Diff (sec)
1 08/06/2022 18:16:39 -0.03, -75.20 0.57, -72.65 291.19 80
2 08/08/2022 06:38:26 0.03, -75.20 0.62, -77.92 309.00 80
3 08/09/2022 06:17:00 0.02, -75.20 -0.39, -73.38 207.78 80
4 08/10/2022 18:38:56 0.01, -75.21 -0.76, -78.69 396.58 80
5 08/11/2022 18:22:50 0.01, -75.22 0.25, -74.16 120.91 80
6 08/13/2022 06:44:36 -0.01, -75.23 0.93, -79.42 477.65 80
7 08/14/2022 06:23:11 -0.01, -75.24 -0.08, -74.89 40.37 80
8 08/16/2022 18:26:20 0.00, -75.28 -0.11, -75.65 42.84 80
9 08/17/2022 18:10:14 0.00, -75.30 0.91, -71.12 475.92 80
10 08/19/2022 06:32:02 -0.00, -75.33 0.22, -76.39 121.13 80
